Location: Grandview
(34.8900°N, 117.1058°W)
Time: 05:41:41
(UTC-08:00)

Vanguard 1 - All Passes

Search period start: 19 January 2018 00:00
Search period end: 29 January 2018 00:00
Orbit: 649 x 3834 km, 34.3° (Epoch: 18 January)

Date Brightness Start Highest point End Pass type
(mag) Time Alt. Az. Time Alt. Az. Time Alt. Az.
19 Jan - 01:07:37 10° W 01:16:23 87° S 01:33:25 10° E visible
19 Jan - 03:27:52 10° W 03:40:25 78° SSW 04:02:17 10° ESE visible
19 Jan - 05:49:45 10° W 06:05:44 49° SSW 06:27:32 10° SE visible
19 Jan - 08:17:36 10° W 08:30:37 20° SW 08:44:34 10° S daylight
19 Jan - 20:53:52 10° SSE 20:56:40 14° SE 21:00:03 10° ESE night (unlit)
19 Jan - 23:09:23 10° SW 23:15:43 62° SSE 23:27:25 10° E night (unlit)
20 Jan - 01:28:35 10° W 01:37:42 88° S 01:55:23 10° E visible
20 Jan - 03:48:57 10° W 04:01:52 71° SSW 04:23:48 10° ESE visible
20 Jan - 06:11:24 10° W 06:27:03 40° SW 06:47:39 10° SSE visible
20 Jan - 08:43:47 10° WSW 08:51:46 13° SW 09:00:02 10° SSW daylight
20 Jan - 21:12:57 10° S 21:17:04 22° SE 21:22:45 10° E night (unlit)
20 Jan - 23:30:06 10° WSW 23:36:41 73° SSE 23:49:08 10° E visible
21 Jan - 01:49:33 10° W 01:59:04 86° S 02:17:20 10° E visible
21 Jan - 04:10:05 10° W 04:23:17 63° SSW 04:45:02 10° SE visible
21 Jan - 06:33:24 10° W 06:48:20 32° SW 07:07:13 10° SSE daylight
21 Jan - 21:32:52 10° SSW 21:37:34 32° SE 21:44:42 10° E night (unlit)
21 Jan - 23:50:55 10° WSW 23:57:46 82° S 00:10:54 10° E visible
22 Jan - 02:10:33 10° W 02:20:25 82° S 02:39:11 10° ESE visible
22 Jan - 04:31:18 10° W 04:44:40 54° SSW 05:05:57 10° SE visible
22 Jan - 06:56:01 10° W 07:09:36 25° SW 07:26:05 10° S daylight
22 Jan - 21:53:10 10° SW 21:58:13 45° SSE 22:06:23 10° E night (unlit)
23 Jan - 00:11:49 10° W 00:18:56 86° S 00:32:42 10° E visible
23 Jan - 02:31:32 10° W 02:41:45 75° SSW 03:00:54 10° ESE visible
23 Jan - 04:52:40 10° W 05:06:02 45° SSW 05:26:28 10° SSE visible
23 Jan - 07:19:46 10° WSW 07:30:54 18° SW 07:43:44 10° S daylight
23 Jan - 19:58:34 10° SSE 20:00:02 11° SE 20:01:37 10° ESE night (unlit)
23 Jan - 22:13:44 10° WSW 22:19:01 59° SSE 22:27:58 10° E night (unlit)
24 Jan - 00:32:45 10° W 00:40:08 87° S 00:54:32 10° E visible
24 Jan - 02:52:33 10° W 03:03:04 67° SSW 03:22:24 10° ESE visible
24 Jan - 05:14:16 10° W 05:27:25 37° SSW 05:46:31 10° SSE visible
24 Jan - 07:46:55 10° WSW 07:52:18 11° SW 07:58:00 10° SSW daylight
24 Jan - 20:17:14 10° S 20:20:33 19° SE 20:24:36 10° E visible
24 Jan - 22:34:27 10° WSW 22:39:56 72° SSE 22:49:31 10° E night (unlit)
25 Jan - 00:53:40 10° W 01:01:23 85° S 01:16:22 10° E visible
25 Jan - 03:13:37 10° W 03:24:24 58° SSW 03:43:36 10° SE visible
25 Jan - 05:36:17 10° W 05:48:47 29° SW 06:05:59 10° SSE visible
25 Jan - 20:37:07 10° SSW 20:41:08 29° SSE 20:46:29 10° E night (unlit)
25 Jan - 22:55:17 10° WSW 23:00:57 81° S 23:11:06 10° E night (unlit)
26 Jan - 01:14:36 10° W 01:22:36 79° SSW 01:38:07 10° ESE visible
26 Jan - 03:34:48 10° W 03:45:45 49° SSW 04:04:28 10° SE visible
26 Jan - 05:58:59 10° W 06:10:11 22° SW 06:24:37 10° S visible
26 Jan - 20:57:27 10° SW 21:01:49 42° SSE 21:08:01 10° E night (unlit)
26 Jan - 23:16:10 10° W 23:22:02 86° S 23:32:45 10° E night (unlit)
27 Jan - 01:35:33 10° W 01:43:49 71° SSW 01:59:43 10° ESE visible
27 Jan - 03:56:09 10° W 04:07:05 40° SSW 04:24:55 10° SSE visible
27 Jan - 06:23:08 10° WSW 06:31:38 15° SW 06:41:42 10° S visible
27 Jan - 19:02:42 10° SSE 19:03:29 10° SE 19:04:17 10° SE visible
27 Jan - 21:18:03 10° WSW 21:22:37 56° SSE 21:29:26 10° E night (unlit)
27 Jan - 23:37:04 10° W 23:43:09 86° S 23:54:24 10° E night (unlit)
28 Jan - 01:56:32 10° W 02:05:03 62° SSW 02:21:07 10° SE visible
28 Jan - 04:17:47 10° W 04:28:29 32° SSW 04:44:52 10° SSE visible
28 Jan - 19:21:08 10° S 19:24:09 18° SSE 19:27:24 10° ESE visible
28 Jan - 21:38:48 10° WSW 21:43:31 71° SSE 21:50:50 10° E night (unlit)
